Date,TemperatureHighF,TemperatureAvgF,TemperatureLowF,DewpointHighF,DewpointAvgF,DewpointLowF,HumidityHigh,HumidityAvg,HumidityLow,PressureMaxIn,PressureMinIn,WindSpeedMaxMPH,WindSpeedAvgMPH,GustSpeedMaxMPH,PrecipitationSumIn
2013-1-1,48.7,43.3,35.6,40.0,-32.9,-99.9,94,81,65,30.22,30.15,2,0,0,0.00
2013-1-2,59.6,40.5,32.4,41.4,7.4,-99.9,90,77,40,30.20,30.09,2,0,0,0.01
2013-1-3,60.4,43.1,33.7,41.0,1.3,-99.9,90,75,43,30.23,30.13,4,0,0,0.00
2013-1-4,49.4,44.5,40.9,40.1,-67.5,-99.9,84,75,63,30.24,30.13,2,0,0,0.00
2013-1-5,49.6,44.7,36.9,43.9,26.0,-99.9,93,87,72,30.20,30.01,3,0,0,0.00
2013-1-6,55.1,46.6,41.8,49.6,43.4,39.4,94,89,73,30.14,30.01,6,0,0,0.00
2013-1-7,68.3,49.5,40.6,52.8,11.5,-99.9,96,85,55,30.20,30.10,5,0,0,0.00
2013-1-8,67.8,51.5,41.5,52.0,-14.5,-99.9,95,81,50,30.19,30.08,4,0,0,0.00
2013-1-9,56.2,46.2,40.9,49.5,27.1,-99.9,93,84,70,30.11,29.93,14,0,20,0.02
2013-1-10,46.6,44.2,41.9,37.6,-45.9,-99.9,81,73,62,30.15,30.01,9,0,0,0.00
2013-1-11,52.2,43.6,35.5,41.0,31.5,-99.9,95,73,52,30.19,30.07,11,0,12,0.00
2013-1-12,42.7,36.4,35.5,34.6,-79.9,-99.9,94,89,50,30.20,30.12,2,0,0,0.00
2013-1-23,48.8,48.8,48.8,46.3,46.3,46.1,91,91,91,30.01,30.01,1,1,0,0.00
2013-4-24,76.1,59.2,47.4,55.6,49.1,45.4,93,71,44,29.89,29.80,3,0,0,0.00
2013-4-25,68.1,55.1,46.5,53.6,31.9,-99.9,96,80,56,30.08,29.89,7,0,0,0.00
2013-4-26,78.2,56.3,47.7,57.5,33.8,-99.9,90,77,45,30.16,30.07,5,0,0,0.00
2013-4-27,81.4,56.8,45.3,61.5,36.7,-99.9,94,77,45,30.17,30.01,4,0,0,0.00
2013-4-28,87.9,61.4,40.4,60.9,40.4,-99.9,97,70,32,30.02,29.82,4,0,0,0.00
2013-4-29,91.1,65.4,50.8,61.2,42.2,-99.9,92,64,30,29.84,29.72,4,0,0,0.00
2013-4-30,83.0,61.8,47.0,49.8,30.5,-99.9,87,59,23,29.80,29.74,5,0,0,0.00
2013-5-1,88.5,65.5,48.2,44.3,27.8,-99.9,66,36,8,30.02,29.80,3,0,0,0.00
2013-5-2,94.0,68.6,48.2,48.2,23.3,-99.9,70,33,12,30.09,30.01,3,0,0,0.00
2013-5-3,93.3,68.4,49.2,51.0,25.9,-99.9,69,37,17,30.02,29.73,2,0,0,0.00
2013-5-4,92.5,64.1,48.8,52.7,33.5,-99.9,86,58,17,29.73,29.50,3,0,0,0.00
2013-5-5,63.9,57.4,51.6,51.8,48.5,46.6,86,73,59,29.76,29.55,20,2,21,0.00
2013-5-6,74.7,61.4,51.1,53.8,48.9,44.5,87,65,36,29.91,29.76,13,1,19,0.00
2013-5-7,81.1,64.2,52.5,54.0,50.1,41.4,83,63,28,29.99,29.90,9,1,12,0.00
2013-5-8,72.0,57.2,51.4,53.8,49.0,45.8,87,75,50,30.08,29.98,11,0,14,0.00
2013-5-9,73.7,58.9,50.7,52.8,48.2,45.8,84,69,44,30.12,30.03,11,1,0,0.00
2013-5-10,82.4,61.2,50.8,57.2,50.0,46.3,88,69,39,30.13,30.05,8,1,0,0.00
2013-5-11,89.3,64.5,45.3,60.4,50.9,43.1,96,66,36,30.09,29.97,8,0,0,0.00
2013-5-12,85.1,64.1,47.7,60.6,49.5,43.4,90,62,32,30.08,29.97,8,0,0,0.00
2013-5-13,83.6,63.3,47.6,59.3,49.5,43.3,88,64,37,30.02,29.89,11,1,13,0.00
2013-5-14,82.8,62.5,49.5,52.9,45.9,40.7,89,59,27,29.93,29.85,9,1,0,0.00
2013-5-15,74.4,58.9,48.6,49.1,44.7,39.1,83,62,30,29.99,29.92,12,1,13,0.00
2013-5-16,78.1,60.7,52.6,57.1,49.9,43.1,85,70,38,29.97,29.90,14,1,14,0.00
2013-5-17,71.1,56.6,46.2,50.6,46.0,42.3,94,70,43,30.02,29.91,5,0,0,0.00
2013-5-18,76.8,58.7,44.7,51.7,38.3,-99.9,93,69,37,30.07,30.01,9,0,0,0.00
2013-5-19,90.0,64.1,47.0,51.7,36.9,-99.9,90,58,23,30.06,29.93,3,0,0,0.00
2013-5-20,95.6,68.3,48.7,51.7,38.7,-99.9,82,48,11,29.94,29.85,9,1,12,0.00
2013-5-21,72.8,58.0,48.7,50.3,43.7,38.6,79,61,35,29.94,29.84,23,1,23,0.00
2013-5-22,70.1,54.8,44.4,41.5,35.8,28.3,75,51,27,29.97,29.85,14,1,16,0.00
2013-5-23,75.8,57.0,45.2,45.1,41.4,37.9,81,59,30,29.95,29.86,15,1,15,0.00
2013-5-24,77.4,56.2,43.2,48.7,42.3,38.8,87,63,30,29.94,29.88,10,1,14,0.00
2013-5-25,76.0,56.7,45.4,48.1,44.3,40.3,86,67,32,30.00,29.91,15,1,17,0.00
2013-5-26,78.3,61.9,52.6,54.6,49.6,46.5,89,67,36,30.07,29.98,15,1,18,0.00
2013-5-27,64.3,58.1,52.6,56.4,51.7,46.1,94,79,66,30.06,29.93,12,1,12,0.06
2013-5-28,76.1,63.3,53.0,59.4,51.8,-99.9,96,75,42,29.94,29.87,11,1,13,0.01
2013-7-23,69.4,67.8,66.0,54.3,53.9,53.3,64,61,58,29.90,29.88,0,0,0,0.00
2013-8-14,67.5,64.6,61.9,60.0,59.3,58.4,89,83,76,29.86,29.83,1,0,0,0.00
2013-8-15,85.3,69.9,61.0,66.1,43.4,-99.9,90,77,52,29.89,29.84,5,0,0,0.00
2013-8-16,90.0,68.2,57.2,64.1,45.3,-99.9,96,74,35,29.91,29.86,5,0,0,0.00
2013-8-17,82.8,65.1,53.1,59.5,37.5,-99.9,93,72,38,29.92,29.79,6,0,0,0.00
2013-8-18,96.1,71.0,52.5,64.3,44.8,-99.9,96,67,34,29.83,29.70,5,0,0,0.00
2013-8-19,95.6,74.3,59.7,62.6,38.5,-99.9,87,59,27,29.82,29.71,2,0,0,0.00
2013-8-20,87.8,67.3,56.5,58.4,36.5,-99.9,86,67,28,29.83,29.73,2,0,0,0.00
2013-8-21,84.8,63.5,52.4,57.9,38.8,-99.9,94,73,34,29.88,29.77,4,0,0,0.00
2013-8-22,77.8,61.9,52.9,57.4,39.4,-99.9,91,75,46,29.92,29.83,4,0,0,0.00
2013-8-23,81.5,64.0,55.9,59.9,42.1,-99.9,87,72,42,29.87,29.74,4,0,0,0.00
2013-8-24,81.2,65.0,52.7,59.9,43.9,-99.9,91,74,45,29.82,29.76,5,0,0,0.00
2013-8-25,81.7,68.7,62.0,63.7,44.8,-99.9,91,76,52,29.88,29.81,4,0,0,0.00
2013-8-26,79.0,64.4,56.2,59.2,34.2,-99.9,88,72,42,29.95,29.84,7,0,0,0.00
2013-8-27,91.2,65.9,50.7,58.3,33.8,-99.9,92,69,27,29.84,29.76,11,1,12,0.00
2013-8-28,90.3,70.4,57.5,63.0,58.7,54.3,91,70,38,29.88,29.78,9,0,15,0.00
2013-8-29,91.2,71.2,58.4,63.7,59.1,55.5,91,70,34,29.98,29.88,9,0,0,0.00
2013-8-30,98.0,72.5,60.1,63.2,57.2,51.8,89,63,27,29.97,29.85,8,1,0,0.00
2013-8-31,89.0,69.1,55.1,60.4,54.3,50.6,88,63,30,29.90,29.83,10,0,12,0.00
2013-9-1,90.1,70.2,57.8,60.3,54.9,49.1,82,62,27,29.87,29.81,9,0,0,0.00
2013-9-2,90.1,72.8,62.3,63.4,59.5,53.8,85,66,35,29.88,29.82,8,1,0,0.00
2013-9-3,87.0,69.3,56.5,57.2,53.7,47.1,87,63,28,29.93,29.86,10,1,13,0.00
2013-9-4,85.7,68.1,56.2,59.0,54.8,47.8,91,67,29,29.96,29.87,18,1,20,0.00
2013-9-5,84.3,67.5,56.3,56.3,53.5,48.7,89,65,32,29.94,29.87,13,1,22,0.00
2013-9-6,95.9,71.2,51.4,56.6,48.6,33.3,90,53,13,29.93,29.76,8,0,0,0.00
2013-9-7,93.5,71.1,55.0,54.6,24.7,-99.9,76,51,21,29.81,29.72,2,0,0,0.00
2013-9-8,95.9,72.0,52.3,58.4,47.3,-99.9,84,53,26,29.81,29.67,9,0,0,0.00
2013-9-9,92.3,71.4,53.2,62.0,52.6,41.6,85,57,20,29.75,29.62,6,0,0,0.00
2013-9-10,72.5,62.0,54.1,60.2,31.4,-99.9,95,83,65,29.83,29.66,4,0,0,0.00
2013-9-11,80.3,66.4,61.8,58.9,36.6,-99.9,86,75,46,29.93,29.83,12,1,15,0.00
2013-9-12,77.8,64.8,57.5,62.8,37.7,-99.9,92,80,58,29.92,29.82,5,0,0,0.00
2013-9-13,78.0,62.1,55.5,61.0,28.7,-99.9,94,79,45,29.84,29.69,5,0,0,0.00
2013-9-14,70.3,59.8,55.3,58.3,46.6,-99.9,90,83,63,29.75,29.71,7,0,0,0.00
2013-10-24,48.9,48.6,48.4,46.7,46.3,45.6,93,92,90,29.98,29.97,0,0,0,0.00